Location: Heisede
(52.2582°N, 9.8523°E)
Time: 23:36:25
(UTC+00:00)

Okean 3 - Pass Details

Date: 13 January 2026
Orbit: 541 x 564 km, 82.5° (Epoch: 9 February)

Event Time Altitude Azimuth Distance (km) Brightness Sun altitude
Exits shadow 05:38:38 17° 333° (NNW) 1,410 5.0 -15.4°
Maximum altitude 05:41:23 46° 266° (W) 744 3.5 -15.0°
Drops below altitude 10° 05:45:11 10° 193° (SSW) 1,805 6.0 -14.5°
Sets 05:47:22 0° 187° (S) 2,691 7.0 -14.1°
